Other Surface Observations
Issued by NWS Tucson, AZ

Home | Current Version | Previous Version | Text Only | Print | Product List | Glossary On
Versions: 1 2 3 4 5 6 7 8 9 10 11 12 13 14 15 16 17 18 19 20 21 22 23 24 25 26 27 28 29 30 31 32 33 34 35 36 37 38 39 40 41 42 43 44 45 46 47 48 49 50
000
SXUS55 KTWC 281315
OSOTWC

WEATHER ROUNDUP FOR SOUTHEAST ARIZONA
NATIONAL WEATHER SERVICE TUCSON AZ
615 AM MST TUE MAR 28 2017

AZZ504>506-514-281415-
LOCATION       SKY/WX    TMP DP  RH WIND       PRES   REMARKS
TUCSON         PTCLDY    51  45  79 S9        29.88R
DAVIS-MONTHAN  CLEAR     49  44  83 S8        29.86R
CHILDRENS PARK N/A      N/A N/A  75 S5                PIMA CO DEQ
ALVERNON/22ND  N/A       52 N/A N/A SE4               PIMA CO DEQ
CHERRY/GLENN   N/A       52 N/A N/A S5                PIMA CO DEQ
TANGERINE      N/A       55 N/A N/A S5                PIMA CO DEQ
CONTL RANCH    N/A       56  41  58 SE7               PIMA CO DEQ
GRANT/1ST      N/A       52  45  76 S4                PIMA CO DEQ
CRAYCROFT/22ND N/A       51  45  81 N/A               PIMA CO DEQ
GOLFLINKS/KOLB N/A       51  44  77 N/A               PIMA CO DEQ
AJO/12TH       N/A       53  46  76 S7                PIMA CO DEQ
FAIRGROUNDS    N/A       49 N/A N/A N/A               PIMA CO DEQ
SAGUARO        N/A       49  45  86 SE7G14            *SABINO CYN
SAN CARLOS     N/A       50  33  52 CALM              *SAN CARLOS
GREEN VALLEY   N/A       49  43  80 SE5               PIMA CO DEQ
HORSE CAMP CYN N/A       50  29  44 W8G12             *ARAVAIPA CYN
RINCON MTNS    N/A       27  26  97 W5G17             *NR MANNING CAMP
$$

AZZ509>511-281415-
LOCATION       SKY/WX    TMP DP  RH WIND       PRES   REMARKS
SAFFORD        CLOUDY    52  36  54 NW6       29.80R
STRAY HORSE    N/A       33  26  74 N/A               *
TRAIL CABIN    N/A       40  31  70 W2                *N OF GRANVILLE
BLACK HILLS    NOT AVBL
DRY LAKE       N/A       33  26  74 W3                *NATANES MTNS
NOON CREEK     N/A       43  36  77 NE4G13            *PINALENO MTNS
COLUMBINE      N/A       26  26  100 SW3              *PINALENO MTNS
GUTHRIE        N/A       42  28  58 W13G21            *SW OF GUTHRIE
$$

AZZ502-503-513-281415-
LOCATION       SKY/WX    TMP DP  RH WIND       PRES   REMARKS
NOGALES        MOCLDY    48  37  65 N8        29.92R
SELLS          N/A       53  39  58 SW3               *
SASABE         N/A       48  43  82 SE6               *ALTAR VLY
HOPKINS        N/A       33  32  95 W17G25            *SANTA RITA MTNS
CARR CYN       N/A       40  36  87 CALM              *W OF HEREFORD
$$

AZZ507-508-512-281415-
LOCATION       SKY/WX    TMP DP  RH WIND       PRES   REMARKS
SIERRA VISTA   LGT RAIN  43  39  87 NW12      29.92R
DOUGLAS        CLOUDY    45  36  70 NW22G30   29.88S
EMPIRE MTNS    NOT AVBL
MULESHOE RANCH N/A       41  38  90 NW14G28           *PRESERVE
HEADQUARTERS   NOT AVBL
$$

.............................NOTES.............................
THIS IS AN AUTOMATED COLLECTIVE WITH MINIMAL QUALITY CONTROL.
PIMA CO DEQ SITES HAVE NONSTANDARD WIND SENSOR HEIGHTS.
PIMA CO DEQ SITES DO NOT REPORT WIND GUSTS.
* INDICATES WIND SENSORS LOCATED AT 20 FEET INSTEAD OF 33 FEET.
..............................KEY..............................
SKY/WX - SKY CONDITION/WEATHER
TMP    - TEMPERATURE IN FAHRENHEIT
DP     - DEWPOINT IN FAHRENHEIT
RH     - RELATIVE HUMIDITY IN PERCENT
WIND   - DIRECTION AND SPEED IN MILES PER HOUR (MPH)
VRB    - VARIABLE WIND DIRECTION
PRES   - MEAN SEA LEVEL PRESSURE IN INCHES OF MERCURY
         F - FALLING PRESSURE   R - RISING PRESSURE
         S - STEADY PRESSURE
VSB    - VISIBILITY IN MILES
HX     - HEAT INDEX IN FAHRENHEIT
WCI    - WIND CHILL INDEX IN FAHRENHEIT
N/A    - NOT AVAILABLE
AFB    - AIR FORCE BASE
         DAVIS-MONTHAN IS DAVIS-MONTHAN AIR FORCE BASE
CYN    - CANYON
MTNS   - MOUNTAINS
NCA    - NATIONAL CONSERVATION AREA
NR     - NEAR
VLY    - VALLEY
CONTL  - CONTINENTAL
PIMA CO DEQ - PIMA COUNTY DEPT OF ENVIRONMENTAL QUALITY



USA.gov is the U.S. government's official web portal to all federal, state and local government web resources and services.